Home   Weather   Mobile   Past weeks

Flag for USA Past Weather in Mobile, Alabama, USA — Yesterday and Last 2 Weeks

Now
71 °F

Passing clouds.


Feels Like: 68 °F
Forecast: 68 / 82 °F
Wind: 3 mph from East

Location: Mobile Downtown Airport

Current Time: Oct 20, 2017 at 10:27:23 pm

Latest Report: Oct 20, 2017 at 8:53 pm


Visibility: 10 mi

Pressure: 30.11 "Hg

Humidity: 90%

Dew Point: 68 °F

Location of MobileLocation

Past Weather in Mobile — Graph

°F

Mobile Temperature Yesterday

Maximum temperature yesterday: 81 °F (at 1:53 pm)
Minimum temperature yesterday: 60 °F (at 1:53 am)
Average temperature yesterday: 71 °F

High & Low Weather Summary for the Past Weeks

 TemperatureHumidityPressure
High89 °F (Oct 12, 2:53 pm)100% (Oct 7, 3:12 pm)30.26 "Hg (Oct 7, 3:12 pm)
Low57 °F (Oct 17, 5:53 am)46% (Oct 18, 1:53 pm)29.47 "Hg (Oct 8, 2:33 am)
Average77 °F84%30.01 "Hg
* Reported Oct 5 8:53 pm — Oct 20 8:53 pm, Mobile. Weather by CustomWeather, © 2017

Note: Actual official high and low records may vary slightly from our data, if they occured in-between our weather recording intervals... More about our weather records

Advertising

Mobile Weather History for the Previous 24 Hours

Scroll right to see more
 ConditionsComfort  
Time TempWeatherWind HumidityBarometerVisibility
8:53 pm
Fri, Oct 20
71 °FPassing clouds.3 mph90%30.11 "Hg10 mi
7:53 pm71 °FPassing clouds.No wind90%30.11 "Hg10 mi
6:53 pm73 °FPassing clouds.No wind88%30.10 "Hg10 mi
5:53 pm77 °FPassing clouds.5 mph71%30.10 "Hg10 mi
4:53 pm79 °FSunny.7 mph67%30.09 "Hg10 mi
3:53 pm80 °FSunny.8 mph62%30.10 "Hg10 mi
2:53 pm81 °FSunny.6 mph62%30.11 "Hg10 mi
1:53 pm79 °FSunny.8 mph60%30.13 "Hg10 mi
12:53 pm79 °FPassing clouds.9 mph60%30.16 "Hg10 mi
11:53 am78 °FScattered clouds.9 mph64%30.19 "Hg10 mi
10:53 am77 °FPassing clouds.12 mph64%30.20 "Hg10 mi
9:53 am73 °FScattered clouds.10 mph74%30.22 "Hg10 mi
8:53 am70 °FSunny.12 mph76%30.21 "Hg10 mi
7:53 am69 °FSunny.6 mph76%30.20 "Hg10 mi
6:53 am68 °FClear.9 mph76%30.18 "Hg10 mi
5:53 am69 °FClear.14 mph76%30.17 "Hg10 mi
4:53 am70 °FClear.13 mph76%30.16 "Hg10 mi
3:53 am70 °FClear.12 mph76%30.16 "Hg10 mi
3:19 am70 °FClear.13 mph79%30.17 "Hg10 mi
2:53 am70 °FClear.13 mph79%30.17 "Hg10 mi
1:53 am71 °FClear.12 mph76%30.19 "Hg10 mi
12:53 am71 °FClear.8 mph76%30.19 "Hg10 mi
11:53 pm
Thu, Oct 19
71 °FClear.8 mph73%30.19 "Hg10 mi
10:53 pm72 °FClear.10 mph73%30.19 "Hg10 mi
Weather by CustomWeather, © 2017

See weather overview